Location: *
(58.7167°N, 26.1833°E)
Time: 01:59:26
(UTC+00:00)

Cosmos 1452 Rocket - Pass Details

Date: 25 August 2019
Orbit: 767 x 775 km, 74.1° (Epoch: 23 October)

Event Time Altitude Azimuth Distance (km) Brightness Sun altitude
Exits shadow 23:25:21 26° 152° (SSE) 1,485 4.6 -19.3°
Maximum altitude 23:27:31 37° 106° (ESE) 1,180 4.4 -19.2°
Drops below altitude 10° 23:32:20 10° 40° (NE) 2,322 7.0 -19.0°
Sets 23:34:51 0° 33° (NNE) 3,253 8.3 -18.9°
